Cloud_Cover
94 100 97 100 72 35 98 100 25 7 27 97 100 100 100 98 99 77 43 43 44 67 10 45 94 100 90 100 100 100 100 100 38 4 20 53 17 3 88 100 60 100 0 0 0 0 0
100 100 96 100 96 51 74 93 17 94 28 44 100 100 100 15 70 87 8 5 1 1 3 46 100 100 100 94 100 100 100 100 100 76 7 47 4 0 68 100 75 9 2 3 4 5 4
93 33 81 39 34 74 51 8 100 96 98 51 60 100 74 68 6 12 5 3 0 0 0 2 6 100 100 99 67 100 100 100 100 81 51 5 5 7 11 22 5 5 41 5 5 1 5
60 19 82 45 74 99 46 98 100 100 98 100 100 50 100 5 6 5 6 48 5 2 7 61 38 100 100 100 92 100 90 62 100 100 100 100 100 18 14 10 31 98 94 100 3 5 5
64 85 89 45 99 98 99 54 6 59 71 99 97 100 38 5 5 5 5 68 5 28 76 86 89 83 14 0 0 1 61 47 94 100 100 100 100 100 66 97 90 99 96 90 55 0 5
73 55 100 98 100 60 32 94 100 100 87 100 95 74 16 11 62 79 60 97 82 5 26 14 47 88 2 0 0 0 0 0 0 80 100 100 100 100 100 100 98 94 100 100 62 4 6
99 100 100 88 100 100 100 100 100 100 100 99 100 79 13 100 17 5 5 100 32 5 5 11 7 2 0 0 0 0 18 1 0 5 100 100 100 100 100 100 27 8 92 100 65 27 83
70 100 100 100 100 100 100 100 100 100 99 96 7 48 71 100 50 77 5 9 56 76 96 3 0 0 0 0 1 0 5 4 10 26 100 100 100 100 100 100 84 96 100 95 99 24 100
100 100 100 100 100 99 100 98 98 95 100 61 15 5 84 16 95 13 2 0 2 97 99 10 0 0 0 0 10 0 1 5 1 30 99 100 95 100 100 100 100 100 100 99 100 95 99
98 100 100 100 55 99 97 14 37 73 91 98 100 98 100 5 5 58 0 4 0 21 100 4 0 0 0 1 17 1 0 5 80 83 100 100 99 100 100 100 65 100 29 60 100 100 99
100 100 100 88 97 96 35 100 24 27 100 92 92 100 20 5 4 0 2 2 2 70 100 0 0 0 0 0 0 0 0 68 27 14 81 23 89 100 48 58 100 99 87 95 60 100 84
100 100 84 100 100 88 100 96 97 12 7 58 100 80 6 0 0 0 5 4 8 100 64 0 4 80 89 86 52 2 0 1 24 100 100 95 99 56 1 5 5 6 39 22 98 100 100
100 100 80 98 93 100 100 100 7 27 12 95 41 5 10 5 0 2 0 2 64 98 0 52 59 100 100 99 100 100 56 84 77 97 100 100 97 98 5 5 5 61 83 100 100 99 38
100 67 46 91 99 100 100 52 5 20 56 49 98 5 5 5 0 0 0 5 100 92 100 50 75 56 100 100 67 99 84 96 94 98 86 93 97 36 85 9 7 21 98 96 93 52 4
100 52 95 100 100 100 13 8 5 53 35 32 25 5 5 0 0 5 5 8 2 100 100 89 2 1 5 96 100 100 89 52 50 100 97 89 85 5 4 5 62 77 88 89 94 91 100
69 49 100 100 100 21 17 85 74 15 5 27 5 8 1 5 5 5 8 2 3 5 91 100 100 100 100 74 34 99 100 100 100 100 100 100 99 11 100 100 98 98 98 95 99 98 88
83 100 100 100 100 82 5 39 7 65 38 5 5 11 5 5 5 5 54 20 23 62 74 73 94 100 100 92 93 89 100 100 100 100 100 100 98 39 24 60 96 100 100 99 45 32 27
100 100 100 100 90 5 5 5 30 79 6 31 92 63 57 57 18 16 89 8 2 0 49 65 78 100 100 100 94 99 100 100 100 100 100 100 100 100 11 98 100 100 99 100 100 100 68
100 100 100 100 9 5 5 74 23 5 96 78 100 55 5 14 34 55 51 13 25 3 27 20 70 100 96 100 100 100 90 100 100 100 100 100 100 100 94 100 100 97 95 100 100 100 100
100 100 100 55 65 75 28 9 5 4 10 64 100 79 5 5 6 7 16 5 18 79 6 89 100 100 62 70 100 100 58 96 100 100 100 100 100 100 100 100 100 99 100 100 100 100 90
100 100 99 38 40 32 31 20 33 5 40 57 100 75 82 40 34 94 83 68 48 96 100 85 14 81 98 49 18 100 100 8 100 100 100 100 100 100 100 100 100 100 100 100 91 87 100
100 100 5 5 84 79 76 95 78 5 5 89 92 100 100 97 100 97 100 37 7 100 100 22 82 5 60 98 100 100 75 92 57 100 100 100 100 100 100 100 97 52 42 56 14 85 73
100 41 27 86 99 38 20 5 15 28 37 86 100 100 100 99 100 100 100 100 20 68 11 95 78 98 50 100 99 53 76 61 6 99 100 47 100 100 100 100 77 20 100 100 70 89 100
59 5 35 48 68 70 21 42 6 3 7 22 100 100 100 98 100 100 100 79 38 96 100 73 100 100 82 93 45 1 1 1 5 3 96 100 100 100 100 100 58 88 100 100 82 100 97
5 31 39 10 18 73 5 9 11 1 4 23 100 100 100 98 100 100 100 86 12 99 100 44 100 100 41 45 18 31 4 0 0 0 23 100 100 100 80 100 72 99 100 97 96 100 100
5 7 7 12 98 20 27 12 85 6 4 21 100 100 100 84 75 100 37 73 87 67 61 82 100 96 34 96 90 100 98 36 1 60 62 100 99 38 51 99 18 100 100 90 100 100 100
6 34 69 15 86 44 5 5 5 5 5 50 99 100 100 100 56 74 85 39 14 50 85 81 11 8 51 85 100 100 100 100 51 99 100 100 100 84 96 45 7 100 100 99 100 100 100
16 70 81 79 88 18 5 14 5 5 58 90 49 100 100 100 59 100 42 37 58 66 97 53 95 83 100 100 93 100 100 100 100 100 100 100 91 74 94 100 63 68 98 100 100 100 100
84 97 99 48 84 17 26 15 5 5 19 100 100 100 100 100 36 43 100 30 4 5 50 100 89 100 100 100 100 92 84 98 100 100 100 100 100 100 62 4 96 100 100 100 100 100 100